This demonstration page uses our WeatherBlox Daily Observations layout. Learn more.

Left ArrowRight Arrow

31.84235, -102.49876

Hourly Observations for July 5, 2022

Temp ( °F °C ) Dew Point ( °F °C ) Humidity (%) Winds ( mph kmh ) Pressure ( in mb ) Visibility ( mi km ) Precip ( " mm )
12:53 am 00:53 Clear 82 27.8 63 17.2 53 53 S 10 17 29.88 1012 10 16 0.00 0.00
1:53 am 01:53 Clear 82 27.8 63 17.2 53 53 S 9 15 29.88 1012 10 16 0.00 0.00
2:53 am 02:53 Clear 81 27.2 63 17.2 54 54 S 7 11 29.87 1012 10 16 0.00 0.00
3:53 am 03:53 Clear 80 26.7 62 16.7 54 54 S 7 11 29.86 1011 10 16 0.00 0.00
4:53 am 04:53 Clear 79 26.1 61 16.1 54 54 S 6 9 29.86 1011 10 16 0.00 0.00
5:53 am 05:53 Clear 80 26.7 60 15.6 51 51 S 8 13 29.87 1012 10 16 0.00 0.00
6:53 am 06:53 Sunny 80 26.7 64 17.8 58 58 S 18 30 29.88 1012 10 16 0.00 0.00
7:53 am 07:53 Sunny 80 26.7 65 18.3 60 60 S 22 35 29.90 1012 10 16 0.00 0.00
8:53 am 08:53 Sunny 82 27.8 66 18.9 58 58 S 17 28 29.91 1013 10 16 0.00 0.00
9:53 am 09:53 Sunny 84 28.9 65 18.3 53 53 SSW 17 28 29.91 1013 10 16 0.00 0.00
10:53 am 10:53 Sunny 87 30.6 65 18.3 48 48 SSW 14 22 29.89 1012 10 16 0.00 0.00
11:53 am 11:53 Sunny 91 32.8 64 17.8 41 41 SW 15 24 29.88 1012 10 16 0.00 0.00
12:53 pm 12:53 Sunny 93 33.9 63 17.2 37 37 SSE 10 17 29.86 1011 10 16 0.00 0.00
1:53 pm 13:53 Sunny 94 34.4 62 16.7 35 35 SW 13 20 29.85 1011 10 16 0.00 0.00
2:53 pm 14:53 Sunny 96 35.6 61 16.1 31 31 S 12 19 29.83 1010 10 16 0.00 0.00
3:53 pm 15:53 Sunny 97 36.1 62 16.7 32 32 SSW 15 24 29.80 1009 10 16 0.00 0.00
4:53 pm 16:53 Sunny 99 37.2 60 15.6 28 28 S 15 24 29.78 1008 10 16 0.00 0.00
5:20 pm 17:20 Partly Cloudy with Nearby Thunderstorms 99 37.2 59 15 27 27 SSW 15 24 29.64 1004 10 16 0.00 0.00
5:53 pm 17:53 Partly Cloudy with Nearby Thunderstorms 99 37.2 60 15.6 28 28 S 12 19 29.76 1008 10 16 0.00 0.00
6:00 pm 18:00 Partly Cloudy 98 36.7 60 15.6 28 28 S 14 22 29.65 1004 10 16 0.00 0.00
6:10 pm 18:10 Partly Cloudy with Thunderstorms 97 36.1 59 15 28 28 SSW 18 30 29.67 1005 10 16 0.00 0.00
6:19 pm 18:19 Mostly Cloudy with Thunderstorms 87 30.6 64 17.8 46 46 SW 30 48 29.73 1007 3 4 0.00 0.00
6:36 pm 18:36 Mostly Cloudy with Strong Thunderstorms 83 28.3 66 18.9 57 57 E 12 19 29.77 1008 2 3 0.11 2.79
6:44 pm 18:44 Cloudy with Thunderstorms 85 29.4 67 19.4 55 55 SW 15 24 29.74 1007 4 6 0.11 2.79
6:53 pm 18:53 Mostly Cloudy with Thunderstorms 86 30 65 18.3 49 49 WSW 16 26 29.80 1009 10 16 0.11 2.79
7:02 pm 19:02 Cloudy with Nearby Thunderstorms 86 30 64 17.8 48 48 WSW 16 26 29.73 1007 10 16 0.00 0.00
7:41 pm 19:41 Mostly Sunny 85 29.4 61 16.1 45 45 SSW 10 17 29.73 1007 10 16 0.00 0.00
7:53 pm 19:53 Mostly Sunny 83 28.3 61 16.1 48 48 SW 15 24 29.80 1009 10 16 0.00 0.00
8:53 pm 20:53 Sunny 84 28.9 62 16.7 48 48 SSW 8 13 29.81 1009 10 16 0.00 0.00
9:53 pm 21:53 Clear 83 28.3 60 15.6 46 46 SW 5 7 29.84 1011 10 16 0.00 0.00
10:53 pm 22:53 Clear 82 27.8 62 16.7 51 51 SW 9 15 29.86 1011 10 16 0.00 0.00
11:53 pm 23:53 Clear 80 26.7 63 17.2 56 56 SSE 7 11 29.83 1010 10 16 0.00 0.00

Powered by AerisWeather